Observations
| Time | Sensor | AQI | SAQ | Temp °C | Hum % | Pres Pa | CO μg/m³ | H₂S μg/m³ | NO μg/m³ | NO₂ μg/m³ | O₃ μg/m³ | SO₂ μg/m³ | CO₂e PPM | VOC PPM | PM1 μg/m³ | PM2.5 μg/m³ | PM4 μg/m³ | PM10 μg/m³ | TPS µm |
|---|---|---|---|---|---|---|---|---|---|---|---|---|---|---|---|---|---|---|---|
| Wednesday 12 August 2026 | |||||||||||||||||||
| 03:27 | Trim Patrick St | 2 | 18.6 | 68 | 22,900 | 0 | 5.11 | 1.34 | 21.34 | 52.28 | 0 | 4.57 | 8.19 | 9.01 | |||||
| 03:26 | Trim Market St | 2 | 19.3 | 65 | 57,388 | 0.05 | 0 | 1.27 | 17.98 | 60.4 | 0 | 1.43 | 3.3 | 6.21 | |||||
| 03:25 | Trim Patrick St | 2 | 18.6 | 66 | 17,003 | 0.01 | 5.74 | 1.31 | 32.32 | 54.78 | 0 | 4.57 | 9.07 | 9.98 | |||||
| 03:25 | Trim Market St | 2 | 19.3 | 65 | 57,393 | 0.04 | 0 | 1.25 | 12.5 | 66.27 | 0 | 2.14 | 3.3 | 4.9 | |||||
| 03:24 | Trim Patrick St | 2 | 18.6 | 69 | 15,437 | 0.02 | 3.69 | 1.29 | 16.79 | 47.92 | 0 | 5.43 | 10.25 | 11.28 | |||||
| 03:23 | Trim Patrick St | 2 | 18.6 | 69 | 13,852 | 0 | 3.4 | 1.3 | 15.33 | 40.91 | 0 | 4.57 | 8.11 | 8.92 | |||||
| 03:23 | Trim Market St | 2 | 19.3 | 65 | 57,403 | 0.05 | 0 | 1.25 | 12.16 | 59.18 | 0 | 1.43 | 3.8 | 5.55 | |||||
| 03:22 | Trim Patrick St | 2 | 18.6 | 69 | 12,834 | 0.01 | 4.35 | 1.31 | 22.62 | 51.03 | 0 | 3.71 | 8.13 | 8.94 | |||||
| 03:21 | Trim Patrick St | 2 | 18.6 | 69 | 11,561 | 0.01 | 4.69 | 1.31 | 27.93 | 46.52 | 0 | 6.29 | 9.55 | 10.51 | |||||
| 03:20 | Trim Patrick St | 2 | 18.6 | 69 | 10,001 | 0.01 | 1.75 | 1.3 | 17.24 | 32.78 | 0 | 5.43 | 10.26 | 11.29 | |||||
| 03:19 | Trim Patrick St | 2 | 18.6 | 69 | 9,120 | 0.01 | 5.4 | 1.3 | 27.94 | 58.24 | 0.29 | 4.57 | 8.81 | 9.69 | |||||
| 03:17 | Trim Patrick St | 2 | 18.6 | 69 | 7,697 | 0 | 2.75 | 1.3 | 15 | 37.96 | 0 | 3.71 | 8.09 | 8.9 | |||||
| 03:17 | Trim Market St | 2 | 19.3 | 64 | 57,430 | 0.05 | 0 | 1.27 | 11.82 | 62.17 | 0 | 1.43 | 4.3 | 6.87 | |||||
| 03:16 | Trim Patrick St | 2 | 18.6 | 69 | 6,379 | 0 | 4.61 | 1.3 | 23.44 | 53.95 | 0 | 5.43 | 8.82 | 9.7 | |||||
| 03:15 | Trim Patrick St | 2 | 18.7 | 68 | 4,727 | 0.01 | 5.21 | 1.31 | 20.39 | 35.78 | 0 | 5.43 | 9.59 | 10.55 | |||||
| 03:14 | Trim Patrick St | 2 | 18.6 | 68 | 3,615 | 0 | 4.58 | 1.33 | 31.11 | 55.11 | 0 | 5.43 | 8.88 | 9.77 | |||||
| 03:13 | Trim Patrick St | 2 | 18.6 | 69 | 2,620 | 0.02 | 3.22 | 1.31 | 14.2 | 39.76 | 0 | 5.43 | 9.57 | 10.53 | |||||
| 03:12 | Trim Patrick St | 2 | 18.7 | 69 | 1,528 | 0.01 | 5.32 | 1.3 | 27.81 | 53.2 | 0 | 4.57 | 8.85 | 9.73 | |||||
| 03:10 | Trim Market St | 2 | 19.4 | 64 | 57,441 | 0.04 | 0 | 1.25 | 12.09 | 67.85 | 0 | 1.43 | 3.32 | 4.89 | |||||
| 03:10 | Trim Patrick St | 2 | 18.7 | 69 | 112,548 | 0.01 | 3.72 | 1.29 | 14.25 | 52.94 | 0.3 | 6.29 | 10.28 | 11.31 | |||||